Wind_Speed
36 36 37 34 33 34 34 35 38 39 40 42 43 45 46 46 45 40 40 40 39 36 38 37 35 35 35 31 29 33 26 27 29 27 27 25 27 25 29 31 33 40 37 36 51 49 37 30 40 37 34 24 31 27
40 39 37 35 35 36 37 39 39 41 41 45 47 48 47 43 40 40 37 35 35 34 36 35 34 33 30 30 29 29 29 25 20 22 23 23 26 29 31 31 31 34 33 34 50 46 35 34 40 27 36 25 35 35
37 35 34 35 35 36 40 41 44 44 46 48 47 45 42 39 38 35 33 33 32 31 33 33 33 32 29 28 27 25 25 25 28 22 24 25 26 25 27 30 33 38 34 34 39 45 42 41 49 40 39 17 22 26
35 33 32 33 36 40 41 43 45 47 48 46 44 41 38 36 34 33 33 33 33 33 32 30 31 30 27 26 24 24 25 22 23 20 24 24 24 25 28 15 25 39 36 32 34 34 38 39 32 51 43 43 18 28
34 33 35 39 40 41 42 45 46 45 45 44 41 37 35 34 34 35 34 33 32 30 24 26 26 22 28 25 20 21 21 22 24 24 26 26 24 27 26 30 32 33 25 34 38 43 39 32 42 39 45 37 17 34
35 38 41 42 41 42 44 45 44 44 44 41 37 34 34 34 35 34 31 29 27 23 22 23 19 12 13 13 16 17 21 21 21 22 23 26 25 23 24 28 26 33 32 40 34 28 23 38 40 40 39 44 25 31
39 42 42 41 43 44 44 44 43 43 42 38 34 34 33 34 32 29 28 27 24 24 22 19 15 10 9 10 12 16 16 17 19 22 23 22 20 20 21 23 27 25 23 24 31 37 38 29 38 39 42 47 44 37
41 42 42 43 45 45 44 43 42 41 38 35 34 33 33 32 30 28 28 26 25 22 21 18 14 13 13 10 11 12 12 12 14 14 16 17 17 14 12 18 21 22 24 25 19 31 14 20 31 40 28 35 44 37
42 43 44 45 46 44 43 41 39 37 35 34 32 32 31 30 29 28 27 25 23 21 19 17 13 11 12 9 8 7 10 11 11 12 15 16 17 13 16 15 15 17 22 27 22 5 14 21 34 42 37 47 34 37
42 45 46 47 45 42 39 38 36 34 35 34 31 29 27 27 29 27 24 23 21 20 17 14 11 11 11 12 11 13 13 13 15 17 16 12 11 11 14 16 15 13 11 20 25 20 14 21 28 39 47 46 34 34
45 47 44 41 40 37 36 34 34 33 30 27 24 25 27 28 27 24 22 21 18 17 15 13 12 11 11 11 13 11 9 11 9 11 13 14 16 13 15 14 18 19 19 23 22 21 24 32 30 36 21 24 34 33
44 39 38 37 34 34 32 31 28 26 24 23 23 25 25 23 22 21 20 18 15 14 10 10 12 12 11 14 14 11 11 9 8 6 8 10 13 11 19 10 13 15 18 22 24 25 30 27 27 30 35 29 28 26
39 37 34 32 31 30 26 24 23 23 22 22 22 22 20 20 20 18 17 14 10 13 14 11 11 9 7 9 9 11 11 8 6 6 9 12 9 9 7 6 9 10 13 17 21 26 30 30 27 30 20 27 27 29
35 32 29 28 26 23 22 21 22 22 22 22 20 19 19 20 18 17 15 10 11 14 14 17 15 14 9 13 8 10 14 7 7 11 9 9 7 8 7 5 5 5 5 10 16 24 28 27 29 33 29 25 26 26
28 26 25 22 20 21 21 22 22 22 21 19 18 19 20 20 18 18 16 16 15 15 11 7 8 8 7 7 7 12 11 9 8 9 12 11 10 8 6 5 4 6 5 7 8 17 23 29 31 33 27 22 28 28
24 23 20 19 19 20 21 21 21 20 19 20 21 19 20 19 18 18 16 15 13 11 9 8 6 5 0 3 6 11 6 10 13 14 14 14 12 9 10 9 7 6 5 6 9 10 16 21 26 30 32 27 25 31
20 18 18 18 19 21 20 20 21 20 21 21 19 21 20 19 19 17 16 13 12 9 9 10 11 10 2 4 6 9 12 17 14 15 14 14 14 10 6 2 6 5 5 6 7 9 9 13 18 23 18 24 34 36
16 17 18 19 20 21 20 21 21 22 23 22 21 22 20 21 19 16 15 13 12 10 11 11 9 9 7 10 3 11 12 9 10 9 10 11 8 8 4 3 6 5 5 6 7 8 9 11 12 16 22 25 25 26
17 18 20 20 21 21 21 21 22 22 24 22 21 20 20 17 14 13 12 12 12 11 14 14 15 11 11 3 9 7 2 1 1 1 4 7 7 7 4 5 5 5 6 6 5 4 3 5 3 5 15 21 23 24
18 19 19 20 21 21 20 21 22 23 20 19 19 17 14 12 10 10 10 11 12 12 17 20 15 11 12 4 8 8 8 4 3 5 4 8 7 8 3 5 4 5 6 10 10 10 13 16 10 11 6 16 28 28
18 18 18 18 19 19 19 21 23 19 17 16 14 12 10 8 6 5 7 8 10 12 22 20 16 12 12 13 10 9 10 10 4 8 11 2 2 1 2 3 4 4 6 8 7 8 8 10 23 15 15 18 19 7
17 18 19 18 17 18 20 21 18 15 14 12 10 8 6 3 2 1 2 4 8 15 22 17 11 12 14 15 17 14 12 10 11 10 11 6 4 4 4 5 5 4 6 12 14 9 9 11 13 13 18 20 28 26
17 17 16 16 18 18 19 18 14 13 12 11 8 5 3 3 3 1 1 2 7 14 16 14 13 11 12 13 15 16 14 12 10 9 9 10 10 7 6 6 7 7 11 13 5 2 8 15 15 17 18 25 31 30
16 17 17 16 18 18 17 14 12 12 10 8 6 4 6 7 6 4 5 5 9 6 9 10 12 11 10 9 12 16 15 13 12 12 11 12 10 9 8 8 7 9 12 9 12 12 11 12 10 10 19 26 25 10
14 13 14 16 17 17 13 11 12 9 5 3 3 4 4 6 7 8 8 8 6 8 9 12 12 13 14 11 10 12 12 15 13 12 13 12 11 9 10 12 15 11 4 15 14 15 13 13 15 15 15 17 22 23
12 13 15 16 15 13 12 11 8 5 4 5 8 5 2 4 8 10 10 8 7 9 12 12 13 13 13 15 14 11 11 13 15 14 13 12 11 10 14 15 18 21 18 11 14 15 13 13 15 16 16 18 20 21
15 16 17 14 12 11 9 7 6 7 5 6 9 8 5 7 8 9 8 10 10 11 12 12 11 9 7 9 12 11 11 12 11 10 9 10 12 13 13 15 15 13 10 10 10 11 12 12 12 11 9 8 7 9
13 15 13 12 9 8 6 7 8 9 9 7 9 11 14 14 12 9 10 9 9 10 9 8 8 8 6 6 7 7 9 9 9 10 10 11 12 11 9 12 9 8 10 11 10 11 10 11 12 14 15 16 17 17
13 11 9 7 5 4 3 5 7 9 9 9 8 9 10 9 12 9 9 7 7 8 8 8 11 7 3 3 4 3 5 2 3 2 2 3 4 6 7 6 7 8 9 9 12 13 15 17 18 19 19 19 20 20
9 9 7 6 6 6 4 3 3 4 5 6 6 6 8 11 12 10 7 7 8 9 10 10 7 8 10 10 9 8 8 5 3 2 1 1 2 4 6 9 11 13 15 17 18 17 18 21 20 20 21 23 25 26
7 7 7 6 5 2 3 2 1 2 3 6 10 12 10 10 10 11 10 11 9 6 7 11 14 13 9 6 7 6 4 2 2 4 6 8 10 12 14 15 16 16 16 17 18 19 21 23 25 26 28 29 30 31
7 5 7 9 8 5 4 10 19 21 22 22 21 19 18 12 15 14 15 13 13 13 16 13 9 7 3 3 3 4 6 8 10 12 13 15 17 18 17 17 18 19 21 22 24 25 26 28 28 29 29 29 28 29
10 12 11 9 11 17 25 29 22 16 18 19 18 18 19 18 17 12 11 10 10 8 6 4 2 3 5 6 8 9 10 12 14 16 16 16 16 17 19 20 21 22 22 24 26 27 27 27 28 28 30 31 30 30
Wind_Direction
296 299 306 304 301 303 305 307 310 310 310 309 309 312 311 310 309 306 306 305 303 301 296 295 289 286 284 279 271 263 261 247 245 245 245 246 248 243 241 242 241 236 244 241 220 224 237 206 228 232 243 251 230 240
298 294 294 299 297 300 302 305 309 311 312 313 312 312 310 308 307 308 307 307 306 303 301 296 291 290 286 279 275 266 259 249 243 244 242 245 241 239 241 245 245 250 254 244 217 224 208 241 238 217 228 232 249 257
305 300 294 295 297 297 304 304 310 312 314 315 313 312 309 308 309 308 309 310 308 305 300 294 292 289 285 281 275 263 251 243 236 236 240 242 246 250 254 245 242 248 244 243 233 218 214 232 230 230 233 211 250 251
302 305 300 298 300 304 306 308 311 313 314 313 312 310 310 310 308 307 309 308 307 306 300 297 291 283 278 271 265 257 250 244 243 239 242 241 243 242 237 253 236 237 243 241 225 214 225 221 235 229 231 235 199 243
296 304 308 307 305 306 307 309 313 314 313 311 310 309 309 308 307 308 308 308 307 306 308 310 306 287 271 264 257 256 248 241 243 241 244 243 245 245 245 250 247 255 240 237 239 235 213 224 240 229 227 232 178 246
297 300 305 307 307 308 310 312 314 313 311 309 309 308 307 307 308 306 309 305 307 304 303 307 321 293 278 253 255 257 250 246 245 243 246 245 249 248 237 241 246 251 247 234 246 224 231 233 235 230 227 228 209 233
296 300 302 303 305 308 312 314 314 312 309 306 306 307 305 305 305 305 305 304 301 301 303 303 297 291 277 263 258 254 251 250 249 250 249 249 245 240 240 246 249 247 238 234 230 237 228 231 221 224 221 222 225 241
294 298 302 303 307 311 312 311 310 308 304 303 305 306 305 304 304 302 301 299 298 300 300 299 294 284 278 267 256 246 249 256 254 246 239 240 245 243 240 251 253 239 235 245 235 215 183 213 216 214 215 219 230 239
294 298 302 306 309 309 309 307 306 303 302 303 303 304 303 303 303 301 300 297 296 297 297 294 292 280 265 258 247 245 252 270 260 249 245 247 248 250 241 252 264 249 232 250 261 219 239 206 207 188 196 226 227 234
295 300 303 306 306 304 302 303 302 300 301 303 305 305 305 305 305 302 297 294 294 295 294 292 284 269 264 254 233 229 240 243 249 260 261 263 243 232 238 238 252 261 232 231 242 250 229 214 213 218 221 231 210 223
296 299 301 301 300 298 300 299 299 301 304 306 308 308 308 309 306 301 298 295 295 291 287 283 274 267 257 239 230 231 228 249 263 256 250 244 249 253 247 226 244 259 248 228 239 218 209 205 207 208 200 166 216 223
298 298 298 297 294 295 297 298 300 302 304 307 309 311 311 308 307 304 302 298 298 298 283 277 277 273 254 236 232 226 234 245 240 244 250 255 257 266 285 230 257 252 248 244 229 216 209 195 209 216 227 224 222 221
295 295 294 292 292 295 296 298 302 306 307 309 309 308 307 307 306 306 302 303 301 282 285 272 269 240 222 220 210 234 228 207 206 240 247 267 273 277 241 261 258 261 247 236 228 212 211 218 197 207 183 211 227 233
293 289 289 292 293 293 295 301 304 306 306 304 303 300 302 306 306 301 292 286 277 281 281 286 268 228 231 218 234 211 194 195 210 237 261 278 283 229 236 266 285 291 264 231 218 210 210 212 216 217 223 223 229 229
288 288 289 290 290 294 298 302 304 305 304 304 302 295 294 302 303 292 290 287 286 291 286 243 204 225 201 196 230 202 200 221 245 236 256 274 283 286 283 287 276 203 251 245 216 211 214 217 215 216 217 227 230 228
285 286 286 288 291 294 298 302 304 303 300 299 299 296 292 294 295 291 289 286 281 289 238 242 216 168 178 206 158 178 189 222 229 255 264 272 282 292 288 285 276 270 277 239 221 206 211 217 219 221 225 239 240 231
282 281 285 289 288 294 299 298 299 303 305 298 291 292 291 291 297 290 280 275 260 264 236 253 243 228 225 172 155 187 199 223 246 259 273 275 257 259 257 250 256 238 247 250 239 231 215 219 222 224 213 236 245 238
275 280 288 288 289 294 294 296 296 300 304 297 292 294 290 290 288 278 268 261 250 252 226 220 215 228 203 208 342 229 260 270 264 261 254 271 247 220 185 230 252 268 257 243 231 226 224 230 234 234 231 230 230 219
278 284 287 289 292 294 296 297 300 300 301 298 295 293 291 287 277 268 259 251 242 245 223 219 216 220 181 211 237 245 289 213 142 309 254 226 225 220 231 261 255 277 272 246 235 225 220 173 197 199 261 238 221 216
280 284 289 290 292 293 294 301 301 303 300 300 298 295 288 282 271 253 246 248 239 246 218 211 216 225 213 213 185 225 247 262 345 189 93 152 180 203 238 281 293 273 248 237 250 271 267 254 225 210 206 248 225 212
282 285 288 294 294 297 296 299 304 303 303 305 298 290 287 284 274 259 255 255 261 257 200 199 208 217 216 232 230 252 254 261 270 254 266 100 108 163 258 297 280 254 237 124 193 236 258 250 253 256 183 265 243 200
280 287 291 292 294 296 297 304 300 300 303 306 302 292 282 274 225 71 291 289 272 190 185 188 204 224 233 248 242 250 245 249 272 260 234 233 243 262 273 268 263 276 286 277 299 269 245 245 261 267 246 247 248 242
285 287 291 297 296 295 300 302 294 295 304 300 291 279 211 156 198 148 90 8 155 173 189 208 218 225 237 245 240 232 244 256 244 221 221 232 243 252 262 274 264 254 254 233 320 1 247 242 242 243 240 233 242 249
288 285 287 293 295 299 300 293 286 296 297 286 264 239 201 188 215 195 193 220 175 182 198 223 219 240 246 249 238 230 234 231 233 219 233 246 259 259 252 227 250 266 287 318 312 282 267 265 269 273 250 242 235 268
293 293 296 296 299 298 292 283 287 285 276 239 187 157 153 176 196 200 216 224 232 211 229 228 232 240 243 252 251 237 230 223 229 238 235 238 253 245 231 249 269 233 288 292 289 275 278 275 265 266 261 254 240 241
285 302 303 302 296 289 287 282 263 239 221 184 169 150 180 190 191 199 222 228 223 224 244 241 250 255 248 246 251 252 245 239 238 244 235 237 229 261 258 274 285 292 307 305 273 275 280 285 275 281 275 271 271 268
282 297 304 298 291 288 281 265 240 213 207 188 190 204 214 201 210 211 232 230 234 239 248 244 250 250 246 246 245 242 243 247 244 236 237 241 252 260 260 261 265 266 267 264 272 282 289 283 281 284 294 307 317 297
285 294 296 294 291 293 268 246 229 216 214 221 213 221 220 219 220 220 219 226 238 237 226 221 213 204 229 253 250 242 242 249 266 272 269 259 260 260 258 246 228 270 286 280 281 286 290 286 283 284 287 290 290 289
284 288 288 284 272 267 246 227 223 227 237 242 231 217 214 212 197 196 187 196 211 208 205 197 190 208 237 297 168 169 170 240 282 261 243 270 236 251 280 276 272 283 292 298 295 290 285 283 283 285 286 287 288 290
279 274 274 266 255 256 256 255 242 243 236 217 204 195 193 195 191 193 204 191 183 181 190 191 218 173 133 114 104 110 125 153 147 119 80 12 315 305 304 305 304 301 296 291 288 287 288 290 292 293 293 294 295 296
264 270 258 236 225 189 107 96 68 344 0 111 124 126 129 130 142 154 146 136 137 163 152 136 125 116 110 113 116 120 115 83 12 330 315 312 309 306 303 300 294 291 290 291 292 294 295 293 293 295 292 292 293 293
256 219 181 159 137 137 119 108 109 104 113 103 105 78 85 127 125 115 131 125 110 109 113 105 104 99 83 40 14 346 327 319 316 311 306 303 303 300 298 296 296 296 296 297 297 298 300 299 298 297 297 297 295 293
170 158 154 146 133 126 126 122 124 106 94 89 89 93 107 104 116 113 133 122 120 119 118 150 202 289 302 299 299 301 306 307 306 303 301 299 299 298 299 299 299 299 299 300 302 302 301 300 300 298 296 297 297 296
Height
5835 5833 5830 5827 5824 5821 5818 5815 5811 5808 5804 5799 5795 5790 5785 5779 5775 5770 5766 5761 5757 5754 5748 5746 5743 5741 5739 5738 5737 5735 5738 5736 5736 5739 5741 5744 5746 5750 5752 5756 5759 5760 5763 5766 5778 5782 5788 5789 5789 5799 5800 5803 5800 5805
5826 5823 5821 5818 5815 5813 5810 5807 5803 5799 5794 5789 5784 5779 5774 5768 5764 5759 5755 5750 5745 5742 5740 5736 5733 5731 5730 5728 5728 5727 5729 5730 5733 5730 5734 5737 5739 5740 5743 5747 5749 5751 5755 5761 5764 5765 5780 5779 5785 5788 5793 5793 5792 5802
5817 5814 5812 5809 5807 5804 5801 5797 5794 5789 5784 5779 5773 5768 5763 5758 5753 5749 5745 5741 5736 5733 5729 5726 5723 5721 5720 5719 5718 5719 5719 5722 5722 5726 5727 5729 5731 5734 5736 5738 5740 5740 5745 5747 5750 5762 5767 5772 5779 5780 5787 5779 5787 5793
5811 5808 5804 5801 5799 5796 5792 5788 5783 5778 5774 5768 5762 5758 5753 5749 5744 5740 5736 5732 5728 5724 5720 5716 5711 5710 5709 5709 5709 5710 5712 5715 5717 5720 5720 5722 5725 5727 5726 5717 5731 5731 5734 5741 5747 5750 5755 5760 5767 5772 5779 5781 5783 5785
5802 5800 5797 5794 5791 5787 5783 5778 5774 5769 5764 5758 5753 5748 5744 5740 5735 5731 5727 5723 5719 5716 5712 5706 5703 5701 5698 5700 5702 5703 5705 5707 5709 5712 5713 5714 5717 5718 5720 5720 5722 5718 5727 5731 5737 5741 5743 5753 5757 5764 5771 5777 5777 5780
5793 5791 5788 5785 5781 5778 5773 5768 5763 5759 5754 5748 5744 5739 5735 5731 5727 5723 5720 5715 5711 5707 5705 5702 5698 5694 5693 5694 5696 5698 5699 5701 5703 5705 5706 5707 5709 5711 5713 5714 5716 5715 5720 5724 5728 5725 5732 5741 5747 5752 5761 5769 5770 5773
5785 5782 5778 5775 5772 5768 5763 5758 5753 5748 5744 5740 5735 5731 5726 5722 5718 5715 5713 5709 5705 5701 5699 5696 5694 5692 5691 5691 5692 5693 5695 5695 5696 5697 5699 5701 5702 5704 5706 5708 5708 5711 5715 5717 5720 5721 5726 5733 5736 5742 5749 5760 5763 5766
5775 5772 5769 5765 5761 5757 5752 5748 5744 5739 5735 5731 5726 5723 5718 5714 5710 5708 5704 5702 5698 5695 5693 5691 5689 5688 5688 5688 5688 5689 5690 5691 5691 5693 5695 5696 5697 5699 5703 5701 5703 5706 5708 5711 5713 5715 5715 5718 5729 5736 5744 5746 5754 5756
5765 5762 5759 5754 5750 5746 5742 5738 5734 5730 5726 5722 5717 5713 5710 5707 5703 5701 5697 5695 5692 5691 5688 5686 5684 5684 5685 5685 5686 5686 5686 5688 5689 5690 5691 5692 5693 5696 5698 5699 5698 5701 5705 5706 5702 5705 5713 5715 5724 5729 5736 5735 5742 5750
5754 5751 5747 5743 5740 5736 5732 5728 5725 5721 5717 5713 5709 5705 5702 5699 5696 5694 5690 5689 5686 5684 5683 5682 5681 5680 5682 5682 5682 5683 5684 5685 5684 5688 5688 5688 5690 5691 5693 5695 5695 5697 5699 5701 5702 5706 5708 5714 5720 5723 5728 5735 5732 5743
5743 5740 5736 5732 5729 5726 5722 5719 5715 5712 5708 5705 5701 5698 5695 5692 5689 5687 5685 5683 5681 5680 5679 5678 5677 5677 5678 5679 5678 5679 5681 5682 5682 5684 5685 5682 5687 5689 5687 5688 5692 5691 5694 5696 5698 5703 5708 5711 5712 5718 5715 5717 5733 5739
5731 5728 5725 5722 5719 5716 5713 5711 5707 5704 5700 5698 5695 5692 5689 5687 5684 5683 5680 5678 5677 5676 5675 5674 5674 5673 5674 5675 5676 5678 5679 5680 5680 5682 5682 5683 5684 5685 5681 5679 5688 5688 5688 5689 5693 5698 5701 5706 5710 5716 5721 5725 5730 5734
5720 5718 5715 5713 5710 5708 5705 5702 5700 5697 5694 5691 5689 5687 5685 5683 5680 5678 5676 5675 5674 5673 5672 5671 5671 5671 5671 5672 5674 5675 5676 5678 5679 5681 5681 5681 5681 5681 5681 5681 5682 5683 5683 5684 5688 5693 5698 5702 5707 5713 5709 5719 5726 5729
5710 5708 5706 5704 5702 5701 5699 5696 5693 5690 5688 5686 5683 5682 5680 5678 5676 5674 5672 5672 5671 5669 5668 5667 5667 5668 5670 5671 5672 5672 5675 5677 5677 5679 5680 5680 5680 5680 5679 5679 5681 5682 5682 5682 5684 5689 5695 5699 5702 5709 5713 5716 5720 5723
5701 5699 5698 5696 5695 5694 5692 5690 5687 5685 5682 5681 5679 5677 5675 5674 5672 5669 5669 5668 5667 5666 5665 5664 5665 5666 5668 5669 5670 5672 5675 5676 5677 5677 5678 5679 5679 5679 5678 5679 5680 5683 5682 5683 5683 5686 5691 5695 5700 5704 5708 5712 5715 5719
5693 5692 5691 5690 5689 5687 5685 5683 5681 5679 5677 5676 5673 5672 5670 5669 5667 5666 5664 5664 5664 5663 5663 5663 5664 5665 5667 5669 5669 5672 5675 5675 5676 5676 5676 5677 5677 5677 5677 5677 5678 5679 5680 5681 5683 5684 5687 5692 5696 5700 5704 5707 5710 5714
5686 5686 5685 5684 5683 5681 5679 5678 5676 5674 5672 5670 5668 5666 5664 5663 5662 5661 5660 5660 5660 5660 5661 5662 5664 5665 5667 5668 5670 5671 5671 5672 5673 5674 5674 5674 5674 5675 5676 5676 5675 5678 5679 5680 5682 5684 5686 5689 5692 5697 5701 5702 5704 5707
5680 5680 5679 5678 5677 5675 5674 5672 5670 5669 5666 5664 5662 5660 5658 5657 5656 5656 5655 5656 5657 5658 5659 5661 5662 5664 5666 5666 5666 5668 5668 5670 5671 5672 5672 5671 5672 5673 5673 5675 5676 5677 5678 5679 5680 5682 5685 5686 5689 5692 5694 5696 5697 5701
5675 5675 5674 5672 5671 5670 5668 5666 5665 5663 5660 5657 5655 5654 5652 5651 5650 5650 5650 5652 5653 5655 5656 5659 5660 5662 5663 5665 5665 5667 5669 5669 5670 5670 5669 5669 5671 5673 5674 5675 5675 5676 5678 5679 5681 5683 5684 5688 5681 5681 5691 5692 5695 5699
5670 5669 5668 5667 5665 5664 5662 5661 5659 5657 5654 5652 5649 5648 5647 5646 5646 5646 5646 5647 5649 5651 5653 5656 5659 5660 5663 5664 5665 5667 5668 5669 5670 5671 5670 5668 5670 5672 5674 5675 5674 5675 5676 5677 5678 5679 5682 5684 5687 5682 5672 5686 5686 5690
5664 5664 5663 5661 5660 5658 5657 5655 5653 5651 5649 5647 5645 5644 5643 5643 5643 5643 5644 5645 5646 5646 5648 5654 5657 5659 5661 5662 5664 5666 5666 5667 5669 5670 5669 5671 5673 5674 5674 5675 5675 5673 5674 5672 5670 5674 5677 5677 5678 5680 5684 5688 5684 5673
5660 5659 5657 5656 5654 5654 5653 5651 5649 5647 5646 5644 5642 5641 5641 5641 5642 5643 5643 5643 5642 5643 5648 5652 5656 5657 5659 5660 5662 5663 5665 5666 5667 5668 5669 5671 5672 5673 5674 5675 5675 5674 5673 5673 5672 5674 5677 5678 5676 5677 5679 5680 5680 5687
5654 5653 5653 5651 5651 5649 5649 5646 5644 5643 5642 5641 5640 5639 5640 5640 5641 5642 5643 5643 5643 5645 5649 5652 5654 5655 5656 5657 5658 5661 5663 5664 5666 5667 5668 5669 5670 5672 5673 5673 5672 5671 5669 5667 5661 5670 5673 5675 5676 5677 5679 5680 5680 5681
5650 5649 5648 5647 5646 5645 5643 5641 5640 5640 5639 5638 5638 5637 5639 5640 5641 5642 5643 5643 5645 5646 5649 5651 5652 5653 5654 5655 5656 5657 5659 5661 5662 5664 5666 5667 5668 5670 5671 5670 5668 5667 5668 5667 5669 5672 5670 5669 5669 5668 5669 5671 5673 5663
5647 5646 5645 5643 5641 5640 5639 5638 5637 5637 5637 5636 5637 5637 5638 5640 5641 5642 5642 5643 5644 5646 5648 5648 5650 5651 5652 5653 5654 5655 5656 5659 5660 5661 5663 5664 5665 5666 5667 5665 5665 5667 5658 5663 5665 5666 5664 5663 5664 5664 5664 5664 5665 5666
5643 5642 5641 5638 5637 5636 5635 5634 5634 5634 5635 5635 5637 5638 5638 5639 5640 5641 5642 5642 5643 5645 5646 5646 5647 5648 5649 5650 5651 5653 5654 5655 5657 5659 5660 5662 5662 5662 5664 5662 5659 5658 5658 5657 5660 5660 5659 5659 5659 5659 5658 5658 5657 5657
5639 5638 5636 5634 5633 5632 5632 5632 5632 5633 5633 5634 5635 5636 5637 5638 5639 5640 5640 5641 5642 5643 5644 5645 5645 5646 5647 5647 5648 5650 5651 5652 5653 5655 5656 5657 5658 5659 5659 5660 5659 5659 5659 5659 5658 5656 5655 5655 5655 5655 5654 5653 5651 5651
5635 5633 5632 5631 5631 5630 5629 5629 5630 5630 5631 5632 5633 5634 5634 5635 5637 5637 5638 5640 5641 5641 5642 5643 5645 5646 5646 5646 5647 5648 5649 5650 5651 5652 5652 5653 5653 5654 5655 5655 5655 5656 5655 5654 5653 5652 5652 5652 5651 5650 5649 5648 5647 5646
5631 5630 5629 5629 5629 5628 5628 5627 5627 5628 5629 5629 5630 5630 5631 5633 5635 5636 5637 5638 5639 5640 5642 5643 5645 5646 5647 5646 5647 5647 5648 5649 5650 5651 5651 5651 5652 5653 5653 5653 5653 5652 5651 5650 5650 5649 5649 5647 5646 5645 5644 5642 5641 5640
5628 5627 5628 5627 5627 5627 5627 5626 5627 5627 5626 5627 5628 5629 5630 5631 5633 5636 5637 5638 5639 5640 5642 5644 5645 5647 5648 5649 5649 5650 5650 5651 5652 5652 5651 5651 5651 5651 5651 5650 5649 5648 5647 5647 5646 5645 5643 5640 5640 5638 5636 5635 5633 5631
5625 5625 5626 5626 5626 5626 5627 5627 5627 5626 5626 5627 5627 5628 5629 5631 5633 5636 5638 5639 5641 5642 5643 5645 5646 5648 5651 5652 5651 5651 5652 5652 5651 5651 5651 5650 5650 5649 5648 5647 5646 5644 5643 5641 5639 5638 5636 5634 5632 5630 5628 5626 5624 5622
5623 5624 5625 5626 5627 5628 5628 5629 5630 5631 5632 5633 5633 5634 5633 5634 5638 5641 5642 5643 5644 5645 5647 5648 5650 5650 5652 5652 5652 5651 5651 5651 5650 5649 5648 5647 5646 5645 5643 5642 5640 5638 5636 5634 5632 5630 5628 5625 5623 5621 5619 5616 5614 5611
5623 5624 5626 5627 5628 5630 5633 5634 5636 5637 5638 5639 5640 5641 5643 5643 5644 5646 5646 5647 5648 5649 5649 5651 5651 5651 5651 5651 5650 5650 5649 5648 5647 5646 5644 5643 5642 5640 5638 5636 5634 5632 5630 5627 5625 5622 5619 5617 5614 5612 5608 5606 5604 5601